Weather in Babynino

Russia / Kaluga Oblast     54°23′23″N   35°46′01″E
temp.,
°C
wind,
m/s
gust,
m/s
humid.,
%
clouds,
%
prec.,
mm/h
press.,
hPa
HPBL,
m
15 april, thu
thu1500:00+11ene2377100 0.0 101547
03:00+10ese3670100 0.0 1016103
06:00+11e2260100 0.0 101421
09:00+10ne3671100 0.1 1015154
12:00+14ese3866100 0.1 1015481
15:00+17ene51052100 0.3 10141893
18:00+15ne5106198 0.0 1013311
21:00+10ese3485100 1.6 101479
16 april, fri
fri1600:00+10ne3589100 0.4 1015119
03:00+10ene498890 0.6 1016205
06:00+8ene399297 0.0 1017254
09:00+10e4785100 0.2 1018419
12:00+11ene4780100 0.5 1018602
15:00+14ene6868100 0.6 10181172
18:00+14ene71271100 1.5 1017844
21:00+11ene71385100 5.2 1018655
17 april, sat
sat1700:00+10ene61294100 12.6 1019719
03:00+8ene61191100 15.0 1020448
06:00+8ene5109394 0.4 1021453
09:00+9ene6987100 0.5 1022653
12:00+10ene6979100 0.0 1022839
15:00+14ene71066100 0.0 10221247
18:00+13ne611648 0.0 1022837
21:00+10ene5127214 0.0 1024383
18 april, sun
sun1800:00+7ne511745 0.0 1025313
03:00+5ne512725 0.0 1026337
06:00+4ne412775 0.0 1027344
09:00+8ene610605 0.0 1027594
12:00+12ene67462 0.0 10271253
15:00+13ene56404 0.0 10271641
18:00+12ene47495 0.0 1028460
21:00+7ene34630 0.0 102962
19 april, mon
mon1900:00+6ene37704 0.0 1030123
03:00+4ene34754 0.0 103161
06:00+4ene35805 0.0 103192
09:00+9e57645 0.0 1031498
12:00+12e685288 0.0 10311798
15:00+12e5753100 0.0 10311688
18:00+11e4857100 0.0 1031563
21:00+9e51259100 0.0 1031476